Flag for Morocco Weather past 2 weeks in Casablanca, Morocco

Now
61 °F

Clear.


Feels Like: 61 °F
Forecast: N/A
Wind: No wind

Location: Casablanca Airport

Current Time: Oct 26, 2014 at 7:19:04 AM

Latest Report: Oct 26, 2014 at 7:00 AM


Visibility: 4 mi

Pressure: 30.04 "Hg

Humidity: 94%

Dew point: 59 °F

Location of CasablancaLocation

Historic Weather in Casablanca — Graph

°F

Casablanca temperature yesterday

Maximum temperature yesterday: 75 °F (at 12:00 PM)
Minimum temperature yesterday: 63 °F (at 7:00 AM)
Average temperature yesterday: 70 °F

Past Weeks' High & Low Weather Summary

 TemperatureHumidityPressure
High102 °F (Oct 22, 5:00 PM)100% (Oct 14, 7:00 AM)30.15 "Hg (Oct 14, 7:00 AM)
Low59 °F (Oct 13, 6:00 AM)23% (Oct 22, 5:00 PM)29.80 "Hg (Oct 11, 4:00 PM)
Average72 °F75%29.98 "Hg
* Reported Oct 11 7:00 AM — Oct 26 6:00 AM, Casablanca, Weather by CustomWeather, © 2014

Note: Actual official high and low records may vary slightly from our data, if they occured in-between our weather recording intervals... More about our weather records

Advertising

Casablanca weather history for previous 24 hours

 ConditionsComfort  
Time TempWeatherWind HumidityBarometerVisibility
6:00 AM
Oct 26
61 °FClear.No wind94%30.04 "Hg4 mi
1:00 AM66 °FClear.2 mph94%30.04 "Hg4 mi
12:00 AM66 °FPassing clouds.2 mph94%30.07 "Hg4 mi
11:00 PM
Oct 25
66 °FPassing clouds.2 mph94%30.04 "Hg4 mi
10:00 PM68 °FPassing clouds.No wind88%30.04 "Hg4 mi
9:00 PM70 °FPassing clouds.2 mph88%30.04 "Hg4 mi
8:00 PM70 °FPassing clouds.5 mph88%30.01 "Hg4 mi
7:00 PM70 °FClear.3 mph88%30.01 "Hg4 mi
6:00 PM72 °FClear.6 mph83%29.98 "Hg5 mi
5:00 PM73 °FClear.7 mph78%29.98 "Hg5 mi
4:00 PM75 °FClear.7 mph74%29.98 "Hg5 mi
3:00 PM75 °FClear.6 mph74%29.98 "Hg5 mi
2:00 PM75 °FClear.7 mph74%29.98 "Hg5 mi
1:00 PM73 °FClear.5 mph69%30.01 "Hg3 mi
12:00 PM75 °FClear.5 mph61%30.01 "Hg3 mi
11:00 AM72 °FFog.7 mph73%30.01 "Hg2 mi
10:00 AM68 °FFog.7 mph83%29.98 "Hg2 mi
9:00 AM66 °FFog.7 mph88%29.95 "Hg1 mi
8:00 AM64 °FFog.7 mph94%29.95 "Hg1 mi
7:00 AM63 °FFog.7 mph100%29.95 "Hg2 mi
Weather by CustomWeather, © 2014

See weather overviewHow to use our weather pages